sat.trackr.live / text

‹ back to catalog

SITRO-AIS 28

NORAD 59071 · 2024-039U

PAYLOAD ACTIVE UNKNOWN

§ Identity

Operator
Country
CIS
Launch date
2024-02-29
Launch site
VOSTO
Launch vehicle
Mass (kg)
RCS (m²)

Purposes: tech_demo

External: N2YO · Heavens-Above · Gunter

§ Orbital elements

Epoch: 2026-09-19T23:07:41.560608Z

Period
96.37 min
Inclination
95.3817°
Eccentricity
0.0142302
Mean motion
14.94313239 rev/d
Perigee alt
485.4 km
Apogee alt
683.6 km
Semi-major
6,962.6 km
B*
1.7921e-4
RAAN
300.4378°
Arg perigee
356.1959°
Mean anomaly
3.8172°
Rev number
13,889

§ Raw data

SITRO-AIS 281 59071U 24039U   26262.96367547  .00002319  00000+0  17921-3 0  99922 59071  95.3817 300.4378 0142302 356.1959   3.8172 14.94313239138891

JSON: /api/v1/satellites/59071 · /tle

For live sub-satellite position, see the globe view (requires WebGL).

§ Visibility from observer

Set your observer location to see the next 7 days of passes ≥ 10°. The values pass through the URL so the page stays shareable.

No JS? Fill the form by hand. The geolocation button needs JavaScript.

§ Radio — SatNOGS DB

ModeDescriptionDownlinkUplink
GMSK USP Mode U - GMSK2k4 USP 401.093 MHz

1 transmitter · refreshed weekly from db.satnogs.org